Location: S�tio Afonso Gruber
(26.1760°S, 49.5250°W)
Time: 00:09:32
(UTC+00:00)

Intelsat 5-3 Rocket - Pass Details

Date: 07 October 2020
Orbit: 281 x 6111 km, 23.6° (Epoch: 22 October)

Event Time Altitude Azimuth Distance (km) Brightness Sun altitude
Exits shadow 02:45:18 31° 84° (E) 6,127 7.3 -57.8°
Drops below altitude 10° 03:00:01 10° 85° (E) 9,069 8.3 -58.1°
Sets 03:09:20 0° 85° (E) 10,575 8.8 -58.2°
